sat.trackr.live / text

‹ back to catalog

STARLINK-31605

NORAD 59348 · 2024-060A

PAYLOAD ACTIVE UNKNOWN

§ Identity

Operator
Country
US
Launch date
2024-03-31
Launch site
AFETR
Launch vehicle
Mass (kg)
RCS (m²)

Purposes: comms

External: N2YO · Heavens-Above · Gunter

§ Orbital elements

Epoch: 2026-05-24T18:47:57.916608Z

Period
94.27 min
Inclination
43.0010°
Eccentricity
0.0001023
Mean motion
15.27566853 rev/d
Perigee alt
482.4 km
Apogee alt
483.8 km
Semi-major
6,861.2 km
B*
6.7550e-5
RAAN
179.4560°
Arg perigee
272.4773°
Mean anomaly
87.5962°
Rev number
12,176

§ Raw data

STARLINK-316051 59348U 24060A   26144.78330922  .00001597  00000+0  67550-4 0  99902 59348  43.0010 179.4560 0001023 272.4773  87.5962 15.27566853121761

JSON: /api/v1/satellites/59348 · /tle

For live sub-satellite position, see the globe view (requires WebGL).

§ Visibility from observer

Set your observer location to see the next 7 days of passes ≥ 10°. The values pass through the URL so the page stays shareable.

No JS? Fill the form by hand. The geolocation button needs JavaScript.